Time,TemperatureF,DewpointF,PressureIn,WindDirection,WindDirectionDegrees,WindSpeedMPH,WindSpeedGustMPH,Humidity,HourlyPrecipIn,Conditions,Clouds,dailyrainin,SoftwareType,DateUTC
2013-01-12 00:00:00,49.8,49.0,30.03,WNW,296,2.0,4.0,97,0.00,,,0.00,VWS V12.08,2013-01-12 05:00:00,
2013-01-12 00:06:00,49.8,49.0,30.03,WNW,296,2.0,4.0,97,0.00,,,0.00,VWS V12.08,2013-01-12 05:06:00,
2013-01-12 00:15:00,49.8,49.0,30.03,WNW,296,4.0,4.0,97,0.00,,,0.00,VWS V12.08,2013-01-12 05:15:00,
2013-01-12 00:16:00,49.8,49.0,30.03,WNW,301,5.0,6.0,97,0.00,,,0.00,VWS V12.08,2013-01-12 05:16:00,
2013-01-12 00:26:00,49.9,49.1,30.02,WNW,302,5.0,8.0,97,0.00,,,0.00,VWS V12.08,2013-01-12 05:26:00,
2013-01-12 00:30:00,49.9,49.1,30.02,WNW,288,4.0,11.0,97,0.00,,,0.00,VWS V12.08,2013-01-12 05:30:00,
2013-01-12 00:36:00,49.9,49.1,30.02,WNW,301,4.0,7.0,97,0.00,,,0.00,VWS V12.08,2013-01-12 05:36:00,
2013-01-12 00:45:00,49.7,48.9,30.03,WNW,288,11.0,12.0,97,0.00,,,0.00,VWS V12.08,2013-01-12 05:45:00,
2013-01-12 00:46:00,49.7,48.9,30.03,West,274,6.0,13.0,97,0.00,,,0.00,VWS V12.08,2013-01-12 05:46:00,
2013-01-12 00:56:00,49.5,48.7,30.02,WNW,296,6.0,15.0,97,0.00,,,0.00,VWS V12.08,2013-01-12 05:56:00,
2013-01-12 01:00:00,49.4,48.6,30.02,West,271,8.0,15.0,97,0.00,,,0.00,VWS V12.08,2013-01-12 06:00:00,
2013-01-12 01:06:00,49.3,48.5,30.03,WNW,295,12.0,15.0,97,0.00,,,0.00,VWS V12.08,2013-01-12 06:06:00,
2013-01-12 01:15:00,49.0,48.2,30.04,NW,317,5.0,15.0,97,0.00,,,0.00,VWS V12.08,2013-01-12 06:15:00,
2013-01-12 01:16:00,48.9,48.1,30.04,NW,318,6.0,12.0,97,0.00,,,0.00,VWS V12.08,2013-01-12 06:16:00,
2013-01-12 01:26:00,48.7,47.9,30.04,NW,312,9.0,17.0,97,0.00,,,0.00,VWS V12.08,2013-01-12 06:26:00,
2013-01-12 01:36:00,48.6,47.8,30.04,NW,304,18.0,18.0,97,0.00,,,0.00,VWS V12.08,2013-01-12 06:36:00,
2013-01-12 01:45:00,48.3,47.5,30.04,NW,306,14.0,22.0,97,0.00,,,0.00,VWS V12.08,2013-01-12 06:45:00,
2013-01-12 01:46:00,48.3,47.5,30.05,NW,304,15.0,15.0,97,0.00,,,0.00,VWS V12.08,2013-01-12 06:46:00,
2013-01-12 01:56:00,48.2,47.4,30.04,WNW,300,9.0,16.0,97,0.00,,,0.00,VWS V12.08,2013-01-12 06:56:00,
2013-01-12 02:00:00,48.2,47.4,30.05,WNW,300,12.0,16.0,97,0.00,,,0.00,VWS V12.08,2013-01-12 07:00:00,
2013-01-12 02:06:00,48.1,47.3,30.05,NW,306,9.0,13.0,97,0.00,,,0.00,VWS V12.08,2013-01-12 07:06:00,
2013-01-12 02:15:00,48.1,47.3,30.05,NW,323,5.0,14.0,97,0.00,,,0.00,VWS V12.08,2013-01-12 07:15:00,
2013-01-12 02:26:00,48.1,47.3,30.05,NW,311,5.0,10.0,97,0.00,,,0.00,VWS V12.08,2013-01-12 07:26:00,
2013-01-12 02:30:00,48.1,47.3,30.05,WNW,302,11.0,11.0,97,0.00,,,0.00,VWS V12.08,2013-01-12 07:30:00,
2013-01-12 02:36:00,48.0,47.2,30.05,WNW,291,6.0,14.0,97,0.00,,,0.00,VWS V12.08,2013-01-12 07:36:00,
2013-01-12 02:45:00,47.8,47.0,30.05,WNW,294,10.0,17.0,97,0.00,,,0.00,VWS V12.08,2013-01-12 07:45:00,
2013-01-12 02:56:00,47.8,47.0,30.05,NW,312,10.0,14.0,97,0.00,,,0.00,VWS V12.08,2013-01-12 07:56:00,
2013-01-12 03:00:00,47.8,47.0,30.05,WNW,300,9.0,14.0,97,0.00,,,0.00,VWS V12.08,2013-01-12 08:00:00,
2013-01-12 03:06:00,47.8,47.0,30.05,NW,319,7.0,16.0,97,0.00,,,0.00,VWS V12.08,2013-01-12 08:06:00,
2013-01-12 03:15:00,47.7,46.9,30.05,WNW,300,7.0,16.0,97,0.00,,,0.00,VWS V12.08,2013-01-12 08:15:00,
2013-01-12 03:16:00,47.7,46.9,30.04,NNW,333,5.0,10.0,97,0.00,,,0.00,VWS V12.08,2013-01-12 08:16:00,
2013-01-12 03:26:00,47.7,46.9,30.04,NW,317,11.0,13.0,97,0.00,,,0.00,VWS V12.08,2013-01-12 08:26:00,
2013-01-12 03:30:00,47.7,46.9,30.05,NW,310,9.0,13.0,97,0.00,,,0.00,VWS V12.08,2013-01-12 08:30:00,
2013-01-12 03:36:00,47.7,46.9,30.04,NW,310,9.0,9.0,97,0.00,,,0.00,VWS V12.08,2013-01-12 08:36:00,
2013-01-12 03:45:00,47.6,46.8,30.05,NW,310,9.0,9.0,97,0.00,,,0.00,VWS V12.08,2013-01-12 08:45:00,
2013-01-12 03:56:00,47.6,46.8,30.05,NW,310,9.0,9.0,97,0.00,,,0.00,VWS V12.08,2013-01-12 08:56:00,
2013-01-12 04:06:00,47.6,46.8,30.05,NW,310,9.0,9.0,97,0.00,,,0.00,VWS V12.08,2013-01-12 09:06:00,
2013-01-12 04:15:00,47.5,46.7,30.04,NW,310,9.0,9.0,97,0.00,,,0.00,VWS V12.08,2013-01-12 09:15:00,
2013-01-12 04:16:00,47.5,46.7,30.04,NW,310,9.0,9.0,97,0.00,,,0.00,VWS V12.08,2013-01-12 09:16:00,
2013-01-12 04:26:00,47.5,46.7,30.04,NW,310,9.0,9.0,97,0.00,,,0.00,VWS V12.08,2013-01-12 09:26:00,
2013-01-12 04:30:00,47.4,46.6,30.04,NW,310,9.0,9.0,97,0.00,,,0.00,VWS V12.08,2013-01-12 09:30:00,
2013-01-12 04:36:00,47.4,46.6,30.05,NW,310,9.0,9.0,97,0.00,,,0.00,VWS V12.08,2013-01-12 09:36:00,
2013-01-12 04:45:00,47.3,46.5,30.04,NW,310,9.0,9.0,97,0.00,,,0.00,VWS V12.08,2013-01-12 09:45:00,
2013-01-12 04:46:00,47.3,46.5,30.04,NW,310,9.0,9.0,97,0.00,,,0.00,VWS V12.08,2013-01-12 09:46:00,
2013-01-12 04:56:00,47.3,46.5,30.04,NW,310,9.0,9.0,97,0.00,,,0.00,VWS V12.08,2013-01-12 09:56:00,
2013-01-12 05:00:00,47.2,46.4,30.04,NW,310,9.0,9.0,97,0.00,,,0.00,VWS V12.08,2013-01-12 10:00:00,
2013-01-12 05:06:00,47.2,46.4,30.04,NW,310,9.0,9.0,97,0.00,,,0.00,VWS V12.08,2013-01-12 10:06:00,
2013-01-12 05:15:00,47.2,46.4,30.05,NW,310,9.0,9.0,97,0.00,,,0.00,VWS V12.08,2013-01-12 10:15:00,
2013-01-12 05:16:00,47.2,46.4,30.05,NW,310,9.0,9.0,97,0.00,,,0.00,VWS V12.08,2013-01-12 10:16:00,
2013-01-12 05:26:00,47.1,46.3,30.05,NW,310,9.0,9.0,97,0.00,,,0.00,VWS V12.08,2013-01-12 10:26:00,
2013-01-12 05:30:00,47.0,46.2,30.05,NW,310,9.0,9.0,97,0.00,,,0.00,VWS V12.08,2013-01-12 10:30:00,
2013-01-12 05:36:00,47.0,46.2,30.06,NW,310,9.0,9.0,97,0.00,,,0.00,VWS V12.08,2013-01-12 10:36:00,
2013-01-12 05:45:00,46.8,46.0,30.05,NW,310,9.0,9.0,97,0.00,,,0.00,VWS V12.08,2013-01-12 10:45:00,
2013-01-12 05:46:00,46.8,46.0,30.06,NW,310,9.0,9.0,97,0.00,,,0.00,VWS V12.08,2013-01-12 10:46:00,
2013-01-12 05:56:00,46.5,45.7,30.05,NW,310,9.0,9.0,97,0.00,,,0.00,VWS V12.08,2013-01-12 10:56:00,
2013-01-12 06:00:00,46.5,45.7,30.05,NW,310,9.0,9.0,97,0.00,,,0.00,VWS V12.08,2013-01-12 11:00:00,
2013-01-12 06:06:00,46.4,45.6,30.05,NW,310,9.0,9.0,97,0.00,,,0.00,VWS V12.08,2013-01-12 11:06:00,
2013-01-12 06:15:00,46.2,45.4,30.05,NW,310,9.0,9.0,97,0.00,,,0.00,VWS V12.08,2013-01-12 11:15:00,
2013-01-12 06:26:00,45.9,45.1,30.05,NW,310,9.0,9.0,97,0.00,,,0.00,VWS V12.08,2013-01-12 11:26:00,
2013-01-12 06:30:00,45.9,45.1,30.06,NW,310,9.0,9.0,97,0.00,,,0.00,VWS V12.08,2013-01-12 11:30:00,
2013-01-12 06:36:00,45.8,45.0,30.07,NW,310,9.0,9.0,97,0.00,,,0.00,VWS V12.08,2013-01-12 11:36:00,
2013-01-12 06:45:00,45.7,44.9,30.08,NW,310,9.0,9.0,97,0.00,,,0.00,VWS V12.08,2013-01-12 11:45:00,
2013-01-12 06:46:00,45.7,44.9,30.08,NW,310,9.0,9.0,97,0.00,,,0.00,VWS V12.08,2013-01-12 11:46:00,
2013-01-12 06:56:00,45.5,44.7,30.07,NW,310,9.0,9.0,97,0.00,,,0.00,VWS V12.08,2013-01-12 11:56:00,
2013-01-12 07:00:00,45.5,44.7,30.08,NW,310,9.0,9.0,97,0.00,,,0.00,VWS V12.08,2013-01-12 12:00:00,
2013-01-12 07:06:00,45.5,44.7,30.08,NW,310,9.0,9.0,97,0.00,,,0.00,VWS V12.08,2013-01-12 12:06:00,
2013-01-12 07:15:00,45.5,44.7,30.08,NW,310,9.0,9.0,97,0.00,,,0.00,VWS V12.08,2013-01-12 12:15:00,
2013-01-12 07:16:00,45.5,44.7,30.08,NW,310,9.0,9.0,97,0.00,,,0.00,VWS V12.08,2013-01-12 12:16:00,
2013-01-12 07:26:00,45.5,44.7,30.08,NW,310,9.0,9.0,97,0.00,,,0.00,VWS V12.08,2013-01-12 12:26:00,
2013-01-12 07:30:00,45.5,44.7,30.08,NW,310,9.0,9.0,97,0.00,,,0.00,VWS V12.08,2013-01-12 12:30:00,
2013-01-12 07:36:00,45.5,44.7,30.08,NW,310,9.0,9.0,97,0.00,,,0.00,VWS V12.08,2013-01-12 12:36:00,
2013-01-12 07:45:00,45.6,44.8,30.09,NW,310,9.0,9.0,97,0.00,,,0.00,VWS V12.08,2013-01-12 12:45:00,
2013-01-12 07:46:00,45.6,44.8,30.09,NW,310,9.0,9.0,97,0.00,,,0.00,VWS V12.08,2013-01-12 12:46:00,
2013-01-12 07:56:00,45.7,44.9,30.10,NW,310,9.0,9.0,97,0.00,,,0.00,VWS V12.08,2013-01-12 12:56:00,
2013-01-12 08:00:00,45.7,44.9,30.10,NW,310,9.0,9.0,97,0.00,,,0.00,VWS V12.08,2013-01-12 13:00:00,
2013-01-12 08:06:00,45.8,45.0,30.10,NW,310,9.0,9.0,97,0.00,,,0.00,VWS V12.08,2013-01-12 13:06:00,
2013-01-12 08:15:00,45.9,45.1,30.10,NW,310,9.0,9.0,97,0.00,,,0.00,VWS V12.08,2013-01-12 13:15:00,
2013-01-12 08:16:00,45.9,45.1,30.10,NW,310,9.0,9.0,97,0.00,,,0.00,VWS V12.08,2013-01-12 13:16:00,
2013-01-12 08:26:00,46.0,45.2,30.10,NW,310,9.0,9.0,97,0.00,,,0.00,VWS V12.08,2013-01-12 13:26:00,
2013-01-12 08:30:00,46.0,45.2,30.11,NNW,338,3.0,9.0,97,0.00,,,0.00,VWS V12.08,2013-01-12 13:30:00,
2013-01-12 08:36:00,46.0,45.2,30.11,NNW,337,3.0,9.0,97,0.00,,,0.00,VWS V12.08,2013-01-12 13:36:00,
2013-01-12 08:45:00,46.0,45.2,30.11,North,349,3.0,10.0,97,0.00,,,0.00,VWS V12.08,2013-01-12 13:45:00,
2013-01-12 08:46:00,46.0,45.2,30.11,North,355,6.0,10.0,97,0.00,,,0.00,VWS V12.08,2013-01-12 13:46:00,
2013-01-12 08:56:00,46.0,45.2,30.11,NNW,338,8.0,13.0,97,0.00,,,0.00,VWS V12.08,2013-01-12 13:56:00,
2013-01-12 09:06:00,46.1,45.3,30.10,NNW,334,11.0,14.0,97,0.00,,,0.00,VWS V12.08,2013-01-12 14:06:00,
2013-01-12 09:15:00,46.2,45.4,30.10,NNW,344,6.0,14.0,97,0.00,,,0.00,VWS V12.08,2013-01-12 14:15:00,
2013-01-12 09:26:00,46.2,45.4,30.10,NNW,335,10.0,14.0,97,0.00,,,0.00,VWS V12.08,2013-01-12 14:26:00,
2013-01-12 09:30:00,46.2,45.4,30.11,NNW,337,11.0,14.0,97,0.00,,,0.00,VWS V12.08,2013-01-12 14:30:00,
2013-01-12 09:36:00,46.3,45.5,30.11,NNW,334,10.0,14.0,97,0.00,,,0.00,VWS V12.08,2013-01-12 14:36:00,
2013-01-12 09:45:00,46.3,45.5,30.11,NNW,336,9.0,14.0,97,0.00,,,0.00,VWS V12.08,2013-01-12 14:45:00,
2013-01-12 09:46:00,46.3,45.5,30.11,NNW,342,9.0,11.0,97,0.00,,,0.00,VWS V12.08,2013-01-12 14:46:00,
2013-01-12 09:56:00,46.7,45.9,30.11,NNW,347,5.0,15.0,97,0.00,,,0.00,VWS V12.08,2013-01-12 14:56:00,
2013-01-12 10:00:00,46.9,46.1,30.11,NNW,338,5.0,15.0,97,0.00,,,0.00,VWS V12.08,2013-01-12 15:00:00,
2013-01-12 10:06:00,47.0,46.2,30.11,North,5,6.0,12.0,97,0.00,,,0.00,VWS V12.08,2013-01-12 15:06:00,
2013-01-12 10:15:00,47.1,46.3,30.11,NNW,348,4.0,12.0,97,0.00,,,0.00,VWS V12.08,2013-01-12 15:15:00,
2013-01-12 10:16:00,47.1,46.3,30.11,NNW,348,2.0,4.0,97,0.00,,,0.00,VWS V12.08,2013-01-12 15:16:00,
2013-01-12 10:26:00,46.9,46.1,30.11,NNW,339,6.0,9.0,97,0.00,,,0.00,VWS V12.08,2013-01-12 15:26:00,
2013-01-12 10:36:00,47.0,46.2,30.11,North,355,5.0,12.0,97,0.00,,,0.00,VWS V12.08,2013-01-12 15:36:00,
2013-01-12 10:45:00,47.3,46.5,30.10,North,351,2.0,12.0,97,0.00,,,0.00,VWS V12.08,2013-01-12 15:45:00,
2013-01-12 10:56:00,47.4,46.6,30.10,NNW,341,5.0,9.0,97,0.00,,,0.00,VWS V12.08,2013-01-12 15:56:00,
2013-01-12 11:00:00,47.4,46.6,30.10,NNW,341,4.0,9.0,97,0.00,,,0.00,VWS V12.08,2013-01-12 16:00:00,
2013-01-12 11:06:00,47.4,46.3,30.10,NNW,348,4.0,7.0,96,0.00,,,0.00,VWS V12.08,2013-01-12 16:06:00,
2013-01-12 11:15:00,47.6,46.8,30.10,NNW,332,9.0,9.0,97,0.00,,,0.00,VWS V12.08,2013-01-12 16:15:00,
2013-01-12 11:16:00,47.6,46.8,30.10,NNW,332,5.0,9.0,97,0.00,,,0.00,VWS V12.08,2013-01-12 16:16:00,
2013-01-12 11:26:00,48.1,47.3,30.09,NNW,346,8.0,9.0,97,0.00,,,0.00,VWS V12.08,2013-01-12 16:26:00,
2013-01-12 11:30:00,48.2,48.2,30.09,NNW,346,5.0,9.0,100,0.00,,,0.00,VWS V12.08,2013-01-12 16:30:00,
2013-01-12 11:36:00,48.2,47.1,30.09,North,5,7.0,9.0,96,0.00,,,0.00,VWS V12.08,2013-01-12 16:36:00,
2013-01-12 11:45:00,48.2,47.1,30.08,NNE,22,3.0,9.0,96,0.00,,,0.00,VWS V12.08,2013-01-12 16:45:00,
2013-01-12 11:46:00,48.3,47.2,30.08,NNE,24,7.0,7.0,96,0.00,,,0.00,VWS V12.08,2013-01-12 16:46:00,
2013-01-12 11:56:00,49.3,48.2,30.08,NNE,17,6.0,9.0,96,0.00,,,0.00,VWS V12.08,2013-01-12 16:56:00,
2013-01-12 12:00:00,49.2,47.8,30.08,NNE,26,7.0,9.0,95,0.00,,,0.00,VWS V12.08,2013-01-12 17:00:00,
2013-01-12 12:06:00,49.1,47.7,30.08,NNE,30,6.0,10.0,95,0.00,,,0.00,VWS V12.08,2013-01-12 17:06:00,
2013-01-12 12:15:00,49.5,47.8,30.08,NNE,32,6.0,10.0,94,0.00,,,0.00,VWS V12.08,2013-01-12 17:15:00,
2013-01-12 12:16:00,49.5,47.8,30.08,NE,35,7.0,7.0,94,0.00,,,0.00,VWS V12.08,2013-01-12 17:16:00,
2013-01-12 12:26:00,49.5,47.8,30.08,North,360,11.0,12.0,94,0.00,,,0.00,VWS V12.08,2013-01-12 17:26:00,
2013-01-12 12:36:00,50.1,48.4,30.08,North,5,2.0,7.0,94,0.00,,,0.00,VWS V12.08,2013-01-12 17:36:00,
2013-01-12 12:45:00,50.2,48.0,30.08,North,5,4.0,9.0,92,0.00,,,0.00,VWS V12.08,2013-01-12 17:45:00,
2013-01-12 12:46:00,50.2,48.0,30.08,North,5,6.0,6.0,92,0.00,,,0.00,VWS V12.08,2013-01-12 17:46:00,
2013-01-12 12:56:00,50.3,48.1,30.08,North,5,3.0,9.0,92,0.00,,,0.00,VWS V12.08,2013-01-12 17:56:00,
2013-01-12 13:06:00,50.4,47.9,30.08,NNE,13,5.0,9.0,91,0.00,,,0.00,VWS V12.08,2013-01-12 18:06:00,
2013-01-12 13:15:00,51.0,48.8,30.09,NNE,13,2.0,9.0,92,0.00,,,0.00,VWS V12.08,2013-01-12 18:15:00,
2013-01-12 13:16:00,51.0,48.5,30.09,NNE,13,3.0,5.0,91,0.00,,,0.00,VWS V12.08,2013-01-12 18:16:00,
2013-01-12 13:26:00,50.7,47.9,30.10,North,11,5.0,9.0,90,0.00,,,0.00,VWS V12.08,2013-01-12 18:26:00,
2013-01-12 13:30:00,50.8,48.3,30.10,North,11,2.0,9.0,91,0.00,,,0.00,VWS V12.08,2013-01-12 18:30:00,
2013-01-12 13:36:00,50.9,48.1,30.10,North,11,3.0,7.0,90,0.00,,,0.00,VWS V12.08,2013-01-12 18:36:00,
2013-01-12 13:45:00,51.0,48.5,30.09,North,11,5.0,7.0,91,0.00,,,0.00,VWS V12.08,2013-01-12 18:45:00,
2013-01-12 13:46:00,51.1,48.3,30.09,North,11,2.0,5.0,90,0.00,,,0.00,VWS V12.08,2013-01-12 18:46:00,
2013-01-12 13:56:00,51.5,49.0,30.09,NNE,21,3.0,7.0,91,0.00,,,0.00,VWS V12.08,2013-01-12 18:56:00,
2013-01-12 14:00:00,52.2,50.0,30.09,NNE,21,3.0,7.0,92,0.00,,,0.00,VWS V12.08,2013-01-12 19:00:00,
2013-01-12 14:06:00,53.0,50.7,30.09,NNE,21,2.0,6.0,92,0.00,,,0.00,VWS V12.08,2013-01-12 19:06:00,
2013-01-12 14:15:00,53.3,50.2,30.09,NNE,21,4.0,6.0,89,0.00,,,0.00,VWS V12.08,2013-01-12 19:15:00,
2013-01-12 14:26:00,52.4,49.0,30.09,NNE,21,2.0,5.0,88,0.00,,,0.00,VWS V12.08,2013-01-12 19:26:00,
2013-01-12 14:30:00,52.0,48.6,30.09,NNE,21,1.0,5.0,88,0.00,,,0.00,VWS V12.08,2013-01-12 19:30:00,
2013-01-12 14:36:00,52.0,48.9,30.09,NNE,21,5.0,5.0,89,0.00,,,0.00,VWS V12.08,2013-01-12 19:36:00,
2013-01-12 14:45:00,51.5,48.4,30.08,NE,47,7.0,7.0,89,0.00,,,0.00,VWS V12.08,2013-01-12 19:45:00,
2013-01-12 14:46:00,51.4,48.0,30.08,NE,49,6.0,7.0,88,0.00,,,0.00,VWS V12.08,2013-01-12 19:46:00,
2013-01-12 14:56:00,50.5,47.7,30.08,ENE,69,7.0,9.0,90,0.00,,,0.00,VWS V12.08,2013-01-12 19:56:00,
2013-01-12 15:00:00,50.0,47.2,30.08,ENE,78,5.0,10.0,90,0.00,,,0.00,VWS V12.08,2013-01-12 20:00:00,
2013-01-12 15:06:00,50.1,47.6,30.08,ENE,78,4.0,7.0,91,0.00,,,0.00,VWS V12.08,2013-01-12 20:06:00,
2013-01-12 15:15:00,50.0,47.5,30.08,ENE,78,3.0,7.0,91,0.00,,,0.00,VWS V12.08,2013-01-12 20:15:00,
2013-01-12 15:16:00,50.0,48.6,30.08,ENE,78,3.0,4.0,95,0.00,,,0.00,VWS V12.08,2013-01-12 20:16:00,
2013-01-12 15:26:00,49.4,46.6,30.09,ENE,78,3.0,5.0,90,0.00,,,0.00,VWS V12.08,2013-01-12 20:26:00,
2013-01-12 15:36:00,48.5,46.0,30.09,ENE,78,4.0,6.0,91,0.00,,,0.00,VWS V12.08,2013-01-12 20:36:00,
2013-01-12 15:45:00,47.9,45.4,30.09,ENE,78,4.0,6.0,91,0.00,,,0.00,VWS V12.08,2013-01-12 20:45:00,
2013-01-12 15:56:00,47.6,45.4,30.09,ENE,78,2.0,4.0,92,0.00,,,0.00,VWS V12.08,2013-01-12 20:56:00,
2013-01-12 16:06:00,47.3,45.4,30.09,ENE,78,1.0,3.0,93,0.00,,,0.00,VWS V12.08,2013-01-12 21:06:00,
2013-01-12 16:15:00,47.3,45.4,30.10,ENE,78,2.0,3.0,93,0.00,,,0.00,VWS V12.08,2013-01-12 21:15:00,
2013-01-12 16:26:00,47.4,45.5,30.10,ENE,78,2.0,3.0,93,0.00,,,0.00,VWS V12.08,2013-01-12 21:26:00,
2013-01-12 16:36:00,47.2,45.3,30.09,ENE,78,3.0,4.0,93,0.00,,,0.00,VWS V12.08,2013-01-12 21:36:00,
2013-01-12 16:45:00,46.8,44.9,30.09,ENE,78,2.0,5.0,93,0.00,,,0.00,VWS V12.08,2013-01-12 21:45:00,
2013-01-12 16:56:00,46.4,44.8,30.09,ENE,78,4.0,5.0,94,0.00,,,0.00,VWS V12.08,2013-01-12 21:56:00,
2013-01-12 17:00:00,46.2,44.6,30.09,ENE,78,5.0,6.0,94,0.00,,,0.00,VWS V12.08,2013-01-12 22:00:00,
2013-01-12 17:06:00,46.0,44.4,30.10,ENE,78,3.0,5.0,94,0.00,,,0.00,VWS V12.08,2013-01-12 22:06:00,
2013-01-12 17:15:00,45.7,44.1,30.10,ENE,78,2.0,5.0,94,0.00,,,0.00,VWS V12.08,2013-01-12 22:15:00,
2013-01-12 17:26:00,45.7,44.3,30.10,ENE,78,0.0,4.0,95,0.00,,,0.00,VWS V12.08,2013-01-12 22:26:00,
2013-01-12 17:30:00,45.7,44.3,30.11,ENE,78,0.0,4.0,95,0.00,,,0.00,VWS V12.08,2013-01-12 22:30:00,
2013-01-12 17:36:00,45.7,44.3,30.11,ENE,78,0.0,0.0,95,0.00,,,0.00,VWS V12.08,2013-01-12 22:36:00,
2013-01-12 17:45:00,45.8,44.5,30.11,ENE,78,0.0,0.0,95,0.00,,,0.00,VWS V12.08,2013-01-12 22:45:00,
2013-01-12 17:46:00,45.8,44.5,30.11,ENE,78,0.0,0.0,95,0.00,,,0.00,VWS V12.08,2013-01-12 22:46:00,
2013-01-12 17:56:00,46.0,44.7,30.12,ENE,78,0.0,0.0,95,0.00,,,0.00,VWS V12.08,2013-01-12 22:56:00,
2013-01-12 18:00:00,46.0,44.9,30.12,ENE,78,0.0,0.0,96,0.00,,,0.00,VWS V12.08,2013-01-12 23:00:00,
2013-01-12 18:06:00,46.3,45.2,30.12,ENE,78,0.0,2.0,96,0.00,,,0.00,VWS V12.08,2013-01-12 23:06:00,
2013-01-12 18:15:00,46.5,45.4,30.13,ENE,78,1.0,3.0,96,0.00,,,0.00,VWS V12.08,2013-01-12 23:15:00,
2013-01-12 18:26:00,46.6,45.5,30.13,ENE,78,2.0,4.0,96,0.00,,,0.00,VWS V12.08,2013-01-12 23:26:00,
2013-01-12 18:36:00,46.6,45.5,30.13,ENE,78,1.0,2.0,96,0.00,,,0.00,VWS V12.08,2013-01-12 23:36:00,
2013-01-12 18:45:00,46.5,45.2,30.13,ENE,78,0.0,2.0,95,0.00,,,0.00,VWS V12.08,2013-01-12 23:45:00,
2013-01-12 18:46:00,46.5,45.2,30.13,ENE,78,0.0,0.0,95,0.00,,,0.00,VWS V12.08,2013-01-12 23:46:00,
2013-01-12 18:56:00,46.4,45.0,30.13,ENE,78,0.0,1.0,95,0.00,,,0.00,VWS V12.08,2013-01-12 23:56:00,
2013-01-12 19:00:00,46.4,45.0,30.13,ENE,78,1.0,2.0,95,0.00,,,0.00,VWS V12.08,2013-01-13 00:00:00,
2013-01-12 19:06:00,46.4,45.3,30.13,ENE,78,0.0,2.0,96,0.00,,,0.00,VWS V12.08,2013-01-13 00:06:00,
2013-01-12 19:15:00,46.4,45.3,30.13,ENE,78,0.0,2.0,96,0.00,,,0.00,VWS V12.08,2013-01-13 00:15:00,
2013-01-12 19:16:00,46.4,45.3,30.13,ENE,78,0.0,0.0,96,0.00,,,0.00,VWS V12.08,2013-01-13 00:16:00,
2013-01-12 19:26:00,46.3,45.2,30.13,ENE,78,0.0,2.0,96,0.00,,,0.00,VWS V12.08,2013-01-13 00:26:00,
2013-01-12 19:30:00,46.3,45.2,30.13,ENE,78,2.0,2.0,96,0.00,,,0.00,VWS V12.08,2013-01-13 00:30:00,
2013-01-12 19:36:00,46.1,45.0,30.13,ENE,78,2.0,3.0,96,0.00,,,0.00,VWS V12.08,2013-01-13 00:36:00,
2013-01-12 19:45:00,46.0,44.9,30.13,ENE,78,0.0,3.0,96,0.00,,,0.00,VWS V12.08,2013-01-13 00:45:00,
2013-01-12 19:56:00,46.0,44.9,30.13,ENE,78,2.0,3.0,96,0.00,,,0.00,VWS V12.08,2013-01-13 00:56:00,
2013-01-12 20:00:00,46.0,44.9,30.13,ENE,78,3.0,4.0,96,0.00,,,0.00,VWS V12.08,2013-01-13 01:00:00,
2013-01-12 20:06:00,45.9,44.8,30.13,ENE,78,3.0,4.0,96,0.00,,,0.00,VWS V12.08,2013-01-13 01:06:00,
2013-01-12 20:15:00,45.7,44.6,30.12,ENE,78,1.0,4.0,96,0.00,,,0.00,VWS V12.08,2013-01-13 01:15:00,
2013-01-12 20:16:00,45.7,44.6,30.12,ENE,78,3.0,3.0,96,0.00,,,0.00,VWS V12.08,2013-01-13 01:16:00,
2013-01-12 20:26:00,45.6,44.5,30.12,ENE,78,3.0,4.0,96,0.00,,,0.00,VWS V12.08,2013-01-13 01:26:00,
2013-01-12 20:30:00,45.6,44.5,30.12,ENE,78,2.0,4.0,96,0.00,,,0.00,VWS V12.08,2013-01-13 01:30:00,
2013-01-12 20:36:00,45.7,44.6,30.12,ENE,78,0.0,3.0,96,0.00,,,0.00,VWS V12.08,2013-01-13 01:36:00,
2013-01-12 20:45:00,45.7,44.6,30.12,ENE,78,2.0,3.0,96,0.00,,,0.00,VWS V12.08,2013-01-13 01:45:00,
2013-01-12 20:46:00,45.7,44.6,30.12,ENE,78,2.0,3.0,96,0.00,,,0.00,VWS V12.08,2013-01-13 01:46:00,
2013-01-12 20:56:00,45.6,44.5,30.12,ENE,78,1.0,3.0,96,0.00,,,0.00,VWS V12.08,2013-01-13 01:56:00,
2013-01-12 21:00:00,45.5,44.4,30.12,ENE,78,0.0,3.0,96,0.00,,,0.00,VWS V12.08,2013-01-13 02:00:00,
2013-01-12 21:06:00,45.5,44.4,30.11,ENE,78,0.0,0.0,96,0.00,,,0.00,VWS V12.08,2013-01-13 02:06:00,
2013-01-12 21:15:00,45.5,44.7,30.11,ENE,78,2.0,2.0,97,0.00,,,0.00,VWS V12.08,2013-01-13 02:15:00,
2013-01-12 21:16:00,45.5,44.7,30.11,ENE,78,1.0,2.0,97,0.00,,,0.00,VWS V12.08,2013-01-13 02:16:00,
2013-01-12 21:26:00,45.4,44.6,30.10,ENE,78,3.0,3.0,97,0.00,,,0.00,VWS V12.08,2013-01-13 02:26:00,
2013-01-12 21:36:00,45.4,44.6,30.10,ENE,78,2.0,2.0,97,0.00,,,0.00,VWS V12.08,2013-01-13 02:36:00,
2013-01-12 21:45:00,45.3,44.5,30.09,ENE,78,5.0,5.0,97,0.00,,,0.00,VWS V12.08,2013-01-13 02:45:00,
2013-01-12 21:46:00,45.3,44.5,30.09,ENE,78,4.0,5.0,97,0.00,,,0.00,VWS V12.08,2013-01-13 02:46:00,
2013-01-12 21:56:00,45.2,44.4,30.10,ENE,78,3.0,5.0,97,0.00,,,0.00,VWS V12.08,2013-01-13 02:56:00,
2013-01-12 22:06:00,45.2,44.4,30.10,ENE,78,1.0,3.0,97,0.00,,,0.00,VWS V12.08,2013-01-13 03:06:00,
2013-01-12 22:15:00,45.1,44.3,30.10,ENE,78,2.0,3.0,97,0.00,,,0.00,VWS V12.08,2013-01-13 03:15:00,
2013-01-12 22:16:00,45.1,44.3,30.10,ENE,78,2.0,2.0,97,0.00,,,0.00,VWS V12.08,2013-01-13 03:16:00,
2013-01-12 22:26:00,45.1,44.3,30.11,ENE,78,2.0,3.0,97,0.00,,,0.00,VWS V12.08,2013-01-13 03:26:00,
2013-01-12 22:36:00,45.0,44.2,30.11,ENE,78,2.0,3.0,97,0.00,,,0.00,VWS V12.08,2013-01-13 03:36:00,
2013-01-12 22:45:00,45.0,44.2,30.11,ENE,78,6.0,6.0,97,0.00,,,0.00,VWS V12.08,2013-01-13 03:45:00,
2013-01-12 22:56:00,44.9,44.1,30.11,East,86,6.0,9.0,97,0.00,,,0.00,VWS V12.08,2013-01-13 03:56:00,
2013-01-12 23:06:00,44.9,44.1,30.10,East,90,4.0,5.0,97,0.00,,,0.00,VWS V12.08,2013-01-13 04:06:00,
2013-01-12 23:15:00,44.8,44.0,30.11,East,90,3.0,5.0,97,0.00,,,0.00,VWS V12.08,2013-01-13 04:15:00,
2013-01-12 23:16:00,44.8,44.0,30.11,East,90,2.0,3.0,97,0.00,,,0.00,VWS V12.08,2013-01-13 04:16:00,
2013-01-12 23:26:00,44.8,44.0,30.11,East,90,4.0,6.0,97,0.00,,,0.00,VWS V12.08,2013-01-13 04:26:00,
2013-01-12 23:30:00,44.8,44.0,30.11,East,90,5.0,7.0,97,0.00,,,0.00,VWS V12.08,2013-01-13 04:30:00,
2013-01-12 23:36:00,44.7,43.9,30.11,ESE,103,9.0,10.0,97,0.00,,,0.00,VWS V12.08,2013-01-13 04:36:00,
2013-01-12 23:45:00,44.6,43.8,30.11,ESE,109,6.0,10.0,97,0.00,,,0.00,VWS V12.08,2013-01-13 04:45:00,
2013-01-12 23:46:00,44.6,43.8,30.11,ESE,109,7.0,7.0,97,0.00,,,0.00,VWS V12.08,2013-01-13 04:46:00,
2013-01-12 23:56:00,44.5,43.7,30.11,ESE,109,6.0,7.0,97,0.00,,,0.00,VWS V12.08,2013-01-13 04:56:00,